Regional Weather Roundup
Issued by NWS

Home | Current Version | Previous Version | Text Only | Print | Product List | Glossary Off
Versions: 1 2 3 4 5 6 7 8 9 10 11 12 13 14 15 16 17 18 19 20 21 22 23 24 25 26 27 28 29 30 31 32 33 34 35 36 37 38 39 40 41 42 43 44 45 46 47 48 49 50

000
ASUS43 KMKX 281800
RWRWI

WISCONSIN REGIONAL WEATHER ROUNDUP
NATIONAL WEATHER SERVICE MILWAUKEE/SULLIVAN WI
100 PM CDT TUE MAR 28 2017

NOTE: "FAIR" INDICATES FEW OR NO CLOUDS BELOW 12,000 FEET WITH NO
SIGNIFICANT WEATHER AND/OR OBSTRUCTIONS TO VISIBILITY.

WIZ001-002-006>008-014>016-023>028-281900-
NORTHWEST WISCONSIN

CITY           SKY/WX    TMP DP  RH WIND       PRES   REMARKS
SUPERIOR ARPT  SUNNY     56  31  38 CALM      30.17S
ASHLAND        SUNNY     57  29  34 SE5       30.17S
6HR MIN TEMP:  21; 6HR MAX TEMP:  57;

HAYWARD        SUNNY     56  22  26 CALM      30.16S
6HR MIN TEMP:  22; 6HR MAX TEMP:  57;

SIREN          SUNNY     57  25  28 NE5       30.16S
CUMBERLAND     SUNNY     52  30  43 S5        30.16S
RICE LAKE      SUNNY     54  32  43 CALM      30.18S
CHETEK         SUNNY     54  35  48 CALM      30.17S
LADYSMITH      SUNNY     53  34  47 CALM      30.17F
EAU CLAIRE     NOT AVBL
MENOMONIE      SUNNY     54  38  55 CALM      30.17F
NEW RICHMOND   SUNNY     56  37  48 CALM      30.16S
OSCEOLA        SUNNY     57  34  40 N3        30.19S
$$

WIZ003>005-009-010-017-018-281900-
NORTH CENTRAL WISCONSIN

CITY           SKY/WX    TMP DP  RH WIND       PRES   REMARKS
MANITOWISH WTR SUNNY     51  28  41 CALM      30.16R
ARBOR VITAE    SUNNY     52  29  41 E3        30.15S
WOODRUFF       SUNNY     52  29  41 E3        30.15S
RHINELANDER    SUNNY     54  31  41 SE5       30.15F
6HR MIN TEMP:  23; 6HR MAX TEMP:  54;

EAGLE RIVER    SUNNY     52  28  39 N3        30.14F
LAND O LAKES   SUNNY     54  28  36 CALM      30.16F
PHILLIPS       SUNNY     52  27  37 S3        30.15S
TOMAHAWK       SUNNY     53  31  43 SE3       30.16S
MEDFORD        SUNNY     49  33  55 E3        30.16R
MERRILL        SUNNY     51  33  48 SE6       30.17S
$$

WIZ029-030-035-036-043>047-281900-
CENTRAL WISCONSIN

CITY           SKY/WX    TMP DP  RH WIND       PRES   REMARKS
WAUSAU         SUNNY     52  31  44 SE6       30.14F
6HR MIN TEMP:  28; 6HR MAX TEMP:  52;

MOSINEE        NOT AVBL
MARSHFIELD     SUNNY     48  35  60 E5        30.16S
6HR MIN TEMP:  28; 6HR MAX TEMP:  48;

STEVENS POINT  SUNNY     50  33  52 NE6       30.16S
WAUPACA        SUNNY     55  35  48 N8        30.17R
WAUTOMA        SUNNY     54  35  48 VRB3      30.16S
6HR MIN TEMP:  40; 6HR MAX TEMP:  54;

WISC RAPIDS    SUNNY     54  34  46 E7        30.17S
6HR MIN TEMP:  38; 6HR MAX TEMP:  54;

CAMP DOUGLAS   NOT AVBL
$$

WIZ011>013-019>022-031-037>040-048>050-281900-
NORTHEAST WISCONSIN

CITY           SKY/WX    TMP DP  RH WIND       PRES   REMARKS
ANTIGO         SUNNY     48  35  59 CALM      30.16F
SHAWANO        SUNNY     52  35  53 E5        30.17S
OCONTO         SUNNY     39  33  78 E6        30.19S
STURGEON BAY   CLOUDY    37  34  89 N7        30.17S WCI  32
6HR MIN TEMP:  31; 6HR MAX TEMP:  37;

GREEN BAY      SUNNY     46  39  76 NE12      30.18R
6HR MIN TEMP:  33; 6HR MAX TEMP:  47;

MANITOWOC      NOT AVBL
APPLETON       MOSUNNY   50  34  53 N8        30.15R
CLINTONVILLE   SUNNY     52  32  46 N8        30.16S
OSHKOSH        SUNNY     48  39  71 E8        30.16S
6HR MIN TEMP:  34; 6HR MAX TEMP:  48;

$$

WIZ032>034-041-042-053>061-281900-
SOUTHWEST WISCONSIN

CITY           SKY/WX    TMP DP  RH WIND       PRES   REMARKS
LA CROSSE      SUNNY     54  40  59 NW7       30.15F
6HR MIN TEMP:  32; 6HR MAX TEMP:  54;

SPARTA         SUNNY     53  38  56 N3        30.17R
VIROQUA        SUNNY     51  37  57 CALM      30.15S
BOSCOBEL       PTSUNNY   51  37  58 E8        30.16F
6HR MIN TEMP:  44; 6HR MAX TEMP:  51;

PRAIRIE DU CHI CLOUDY    49  38  67 E6        30.15F
PLATTEVILLE    CLOUDY    46  41  85 NE6       30.16R
$$

WIZ056-057-062-063-064-067-068-281900-
SOUTH CENTRAL WISCONSIN

CITY           SKY/WX    TMP DP  RH WIND       PRES   REMARKS
REEDSBURG      PTSUNNY   51  37  59 E7        30.16S
BARABOO/DELLS  MOSUNNY   50  37  59 SE3       30.15F
LONE ROCK      MOSUNNY   50  38  63 CALM      30.16F
MINERAL POINT  CLOUDY    46  43  87 E7        30.15F
MADISON        MOSUNNY   50  38  63 N8        30.14F
6HR MIN TEMP:  40; 6HR MAX TEMP:  51;

MIDDLETON      PTSUNNY   52  40  65 N6        30.16S
WATERTOWN      MOSUNNY   51  38  62 N9        30.14S
MONROE         CLOUDY    45  37  76 NE8       30.14S
JANESVILLE     PTSUNNY   50  37  62 NE8       30.14S
$$

WIZ051-052-058>065-066-070>072-281900-
SOUTHEAST WISCONSIN

CITY           SKY/WX    TMP DP  RH WIND       PRES   REMARKS
MILWAUKEE      PTSUNNY   42  36  79 NE9       30.15S
6HR MIN TEMP:  40; 6HR MAX TEMP:  43;

WAUKESHA       SUNNY     50  36  57 NE17      30.14S
MILWAUKEE/TIMM SUNNY     46  36  66 NE7       30.15S
RACINE         CLOUDY    41  36  82 N14       30.16S
6HR MIN TEMP:  39; 6HR MAX TEMP:  42;

KENOSHA        PTSUNNY   45  38  76 NE14      30.14S
6HR MIN TEMP:  39; 6HR MAX TEMP:  46;

FOND DU LAC    SUNNY     49  37  63 NE12      30.16S
6HR MIN TEMP:  35; 6HR MAX TEMP:  49;

SHEBOYGAN      PTSUNNY   42  38  85 NE12      30.16R
6HR MIN TEMP:  38; 6HR MAX TEMP:  44;

WEST BEND      SUNNY     50  36  57 N10       30.14S
JUNEAU         SUNNY     49  37  62 N7        30.16R
$$

LSZ147-162-281900-
LAKE SUPERIOR

STATION/POSITION TIME  TEMP    WIND        PRES    WAVE
                       AIR SEA DIR/SP/G            HT/PER
                 (UTC) (F)     (DEG/KT/KT) (MB)    (FT/S)
DEVILS ISLAND    1700   37     220/ 10/ 11 1022.5R
PORT WING        1730   39     330/  3/  4 1022.0S
SAXON HARBOR     1730   35      30/  5/  6 1022.0R
$$

LMZ867-665-643>646-281900-
LAKE MICHIGAN

STATION/POSITION TIME  TEMP    WIND        PRES    WAVE
                       AIR SEA DIR/SP/G            HT/PER
                 (UTC) (F)     (DEG/KT/KT) (MB)    (FT/S)
CHAMBERS ISLAND  1740   34     330/  5/  5 1022.4R
NORTHPORT PIER   1740   33     320/  3/  6 1022.7R
KEWAUNEE LAKESHO 1730   34      50/  6/ 11 1021.6F
SHEBOYGAN LAKESH 1700   34      20/ 10/ 12 1021.8R
PORT WASHINGTON  1730   38      60/  9/ 11 1022.4R
KENOSHA   LAKESH 1700   37      30/ 16/ 18 1020.7
$$

TC  - TEMPERATURE IN CELSIUS
VSB - VISIBILITY IN STATUTE MILES
WCI - WIND CHILL INDEX
HX  - HEAT INDEX




USA.gov is the U.S. government's official web portal to all federal, state and local government web resources and services.